| time (UTC) | temp F | wind direction | speed knots | gust knots | rain 1hr in | rain 24hr in | rain mn in | humidity % | barometer mb |
| 20260505011530 | 61 | 95 | 4.3 | 16.5 | 0.00 | 0.00 | 0.00 | 43 | 1008.4 |
| 20260505011025 | 61 | 22 | 5.2 | 16.5 | 0.00 | 0.00 | 0.00 | 42 | 1008.3 |
| 20260505011011 | 61 | 44 | 5.2 | 16.5 | 0.00 | 0.00 | 0.00 | 42 | 1008.2 |
| 20260505010013 | 62 | 267 | 5.2 | 14.8 | 0.00 | 0.00 | 0.00 | 41 | 1008.4 |
| 20260505005506 | 62 | 150 | 5.2 | 14.8 | 0.00 | 0.00 | 0.00 | 41 | 1008.3 |
| 20260505005002 | 63 | 84 | 5.2 | 14.8 | 0.00 | 0.00 | 0.00 | 40 | 1008.2 |
| 20260505004453 | 64 | 46 | 4.3 | 13.0 | 0.00 | 0.00 | 0.00 | 38 | 1008.0 |
| 20260505003948 | 64 | 129 | 3.5 | 12.2 | 0.00 | 0.00 | 0.00 | 38 | 1007.9 |
| 20260505003708 | 64 | 18 | 3.5 | 12.2 | 0.00 | 0.00 | 0.00 | 39 | 1007.9 |
| 20260505002935 | 65 | 45 | 5.2 | 15.6 | 0.00 | 0.00 | 0.00 | 38 | 1007.7 |
| 20260505002431 | 65 | 59 | 5.2 | 15.6 | 0.00 | 0.00 | 0.00 | 38 | 1007.6 |
| 20260505001924 | 66 | 78 | 4.3 | 15.6 | 0.00 | 0.00 | 0.00 | 37 | 1007.5 |
| 20260505001419 | 67 | 5 | 4.3 | 13.9 | 0.00 | 0.00 | 0.00 | 37 | 1007.5 |
| 20260505000913 | 67 | 125 | 4.3 | 13.9 | 0.00 | 0.00 | 0.00 | 37 | 1007.4 |
| 20260505000632 | 68 | 51 | 3.5 | 11.3 | 0.00 | 0.00 | 0.00 | 37 | 1007.2 |
| 20260505000120 | 68 | 91 | 3.5 | 10.4 | 0.00 | 0.00 | 0.00 | 37 | 1007.0 |
| 20260504235353 | 68 | 298 | 3.5 | 9.6 | 0.00 | 0.00 | 0.00 | 37 | 1007.0 |
| 20260504234847 | 69 | 96 | 3.5 | 9.6 | 0.00 | 0.00 | 0.00 | 37 | 1007.0 |
| 20260504234343 | 69 | 91 | 3.5 | 9.6 | 0.00 | 0.00 | 0.00 | 36 | 1007.1 |
| 20260504233837 | 69 | 46 | 4.3 | 14.8 | 0.00 | 0.00 | 0.00 | 36 | 1006.9 |
| 20260504233330 | 69 | 154 | 4.3 | 14.8 | 0.00 | 0.00 | 0.00 | 36 | 1007.0 |
| 20260504233308 | 70 | 61 | 4.3 | 14.8 | 0.00 | 0.00 | 0.00 | 36 | 1006.9 |
| 20260504232318 | 70 | 11 | 4.3 | 14.8 | 0.00 | 0.00 | 0.00 | 35 | 1006.7 |
| 20260504231813 | 70 | 65 | 4.3 | 11.3 | 0.00 | 0.00 | 0.00 | 35 | 1006.7 |
| 20260504231307 | 71 | 42 | 3.5 | 10.4 | 0.00 | 0.00 | 0.00 | 34 | 1006.7 |
| 20260504231021 | 71 | 40 | 3.5 | 10.4 | 0.00 | 0.00 | 0.00 | 34 | 1006.7 |
| 20260504230537 | 72 | 46 | 4.3 | 10.4 | 0.00 | 0.00 | 0.00 | 33 | 1006.4 |
| 20260504225805 | 72 | 78 | 4.3 | 10.4 | 0.00 | 0.00 | 0.00 | 34 | 1006.4 |
| 20260504225304 | 72 | 94 | 4.3 | 13.0 | 0.00 | 0.00 | 0.00 | 33 | 1006.0 |
| 20260504225022 | 73 | 114 | 3.5 | 13.0 | 0.00 | 0.00 | 0.00 | 33 | 1005.9 |
| 20260504224745 | 73 | 79 | 3.5 | 10.4 | 0.00 | 0.00 | 0.00 | 33 | 1005.7 |
| 20260504223802 | 73 | 96 | 3.5 | 15.6 | 0.00 | 0.00 | 0.00 | 33 | 1005.7 |
| 20260504223514 | 73 | 138 | 4.3 | 15.6 | 0.00 | 0.00 | 0.00 | 33 | 1005.6 |
| 20260504222757 | 74 | 73 | 5.2 | 15.6 | 0.00 | 0.00 | 0.00 | 33 | 1005.6 |
| 20260504222257 | 74 | 103 | 4.3 | 15.6 | 0.00 | 0.00 | 0.00 | 33 | 1005.5 |
| 20260504221759 | 75 | 276 | 3.5 | 14.8 | 0.00 | 0.00 | 0.00 | 34 | 1005.4 |
| 20260504221259 | 75 | 21 | 4.3 | 14.8 | 0.00 | 0.00 | 0.00 | 32 | 1005.2 |
| 20260504220756 | 74 | 78 | 5.2 | 14.8 | 0.00 | 0.00 | 0.00 | 32 | 1005.2 |
| 20260504220259 | 75 | 33 | 4.3 | 14.8 | 0.00 | 0.00 | 0.00 | 32 | 1005.1 |
| 20260504215755 | 76 | 63 | 3.5 | 11.3 | 0.00 | 0.00 | 0.00 | 33 | 1005.1 |
| 20260504215255 | 76 | 57 | 3.5 | 11.3 | 0.00 | 0.00 | 0.00 | 32 | 1005.0 |
| 20260504215020 | 76 | 325 | 3.5 | 11.3 | 0.00 | 0.00 | 0.00 | 33 | 1004.9 |
| 20260504214251 | 77 | 46 | 2.6 | 10.4 | 0.00 | 0.00 | 0.00 | 31 | 1005.0 |
| 20260504213748 | 77 | 22 | 3.5 | 10.4 | 0.00 | 0.00 | 0.00 | 31 | 1004.9 |
| 20260504213248 | 77 | 123 | 4.3 | 10.4 | 0.00 | 0.00 | 0.00 | 31 | 1004.8 |
| 20260504212749 | 77 | 13 | 3.5 | 9.6 | 0.00 | 0.00 | 0.00 | 31 | 1004.8 |
| 20260504212249 | 77 | 136 | 3.5 | 9.6 | 0.00 | 0.00 | 0.00 | 33 | 1004.7 |
| 20260504211750 | 78 | 116 | 3.5 | 9.6 | 0.00 | 0.00 | 0.00 | 31 | 1004.8 |
| 20260504211249 | 78 | 119 | 2.6 | 8.7 | 0.00 | 0.00 | 0.00 | 32 | 1004.6 |
| 20260504210749 | 78 | 120 | 2.6 | 8.7 | 0.00 | 0.00 | 0.00 | 32 | 1004.6 |
| 20260504210511 | 78 | 103 | 2.6 | 7.8 | 0.00 | 0.00 | 0.00 | 32 | 1004.6 |
| 20260504205749 | 78 | 123 | 2.6 | 7.8 | 0.00 | 0.00 | 0.00 | 32 | 1004.6 |
| 20260504205252 | 78 | 66 | 2.6 | 9.6 | 0.00 | 0.00 | 0.00 | 33 | 1004.6 |
| 20260504204749 | 78 | 70 | 2.6 | 9.6 | 0.00 | 0.00 | 0.00 | 36 | 1004.6 |
| 20260504204245 | 78 | 37 | 3.5 | 12.2 | 0.00 | 0.00 | 0.00 | 36 | 1004.5 |
| 20260504203746 | 78 | 69 | 2.6 | 12.2 | 0.00 | 0.00 | 0.00 | 34 | 1004.6 |
| 20260504203245 | 78 | 97 | 3.5 | 12.2 | 0.00 | 0.00 | 0.00 | 37 | 1004.5 |
| 20260504202746 | 78 | 80 | 3.5 | 12.2 | 0.00 | 0.00 | 0.00 | 36 | 1004.6 |
| 20260504202246 | 79 | 40 | 2.6 | 7.0 | 0.00 | 0.00 | 0.00 | 37 | 1004.5 |
| 20260504201745 | 79 | 49 | 2.6 | 13.9 | 0.00 | 0.00 | 0.00 | 36 | 1004.4 |
| 20260504201245 | 78 | 71 | 2.6 | 13.9 | 0.00 | 0.00 | 0.00 | 40 | 1004.4 |
| 20260504200745 | 78 | 115 | 3.5 | 13.9 | 0.00 | 0.00 | 0.00 | 39 | 1004.4 |
| 20260504200244 | 78 | 50 | 3.5 | 13.9 | 0.00 | 0.00 | 0.00 | 36 | 1004.3 |
| 20260504195743 | 79 | 315 | 3.5 | 11.3 | 0.00 | 0.00 | 0.00 | 37 | 1004.5 |
| 20260504195245 | 79 | 41 | 3.5 | 9.6 | 0.00 | 0.00 | 0.00 | 38 | 1004.4 |
| 20260504194959 | 79 | 64 | 3.5 | 9.6 | 0.00 | 0.00 | 0.00 | 36 | 1004.5 |
| 20260504194240 | 80 | 306 | 3.5 | 9.6 | 0.00 | 0.00 | 0.00 | 38 | 1004.3 |
| 20260504193739 | 80 | 119 | 3.5 | 9.6 | 0.00 | 0.00 | 0.00 | 38 | 1004.3 |
| 20260504193237 | 79 | 342 | 2.6 | 9.6 | 0.00 | 0.00 | 0.00 | 38 | 1004.2 |
| 20260504192740 | 79 | 42 | 2.6 | 9.6 | 0.00 | 0.00 | 0.00 | 38 | 1004.2 |
| 20260504192238 | 80 | 60 | 3.5 | 11.3 | 0.00 | 0.00 | 0.00 | 39 | 1004.2 |
| 20260504191738 | 80 | 86 | 3.5 | 11.3 | 0.00 | 0.00 | 0.00 | 40 | 1004.2 |
| 20260504191458 | 80 | 299 | 2.6 | 9.6 | 0.00 | 0.00 | 0.00 | 40 | 1004.2 |
| 20260504190740 | 80 | 53 | 2.6 | 9.6 | 0.00 | 0.00 | 0.00 | 38 | 1004.1 |
| 20260504190234 | 80 | 288 | 2.6 | 8.7 | 0.00 | 0.00 | 0.00 | 39 | 1004.1 |
| 20260504185736 | 80 | 164 | 2.6 | 12.2 | 0.00 | 0.00 | 0.00 | 39 | 1004.0 |
| 20260504185234 | 81 | 96 | 2.6 | 12.2 | 0.00 | 0.00 | 0.00 | 36 | 1003.9 |
| 20260504184734 | 81 | 55 | 3.5 | 12.2 | 0.00 | 0.00 | 0.00 | 39 | 1003.8 |
| 20260504184234 | 81 | 130 | 3.5 | 12.2 | 0.00 | 0.00 | 0.00 | 34 | 1003.9 |
| 20260504184001 | 82 | 282 | 2.6 | 8.7 | 0.00 | 0.00 | 0.00 | 34 | 1003.8 |
| 20260504183456 | 82 | 163 | 2.6 | 10.4 | 0.00 | 0.00 | 0.00 | 35 | 1003.8 |
| 20260504183006 | 81 | 271 | 2.6 | 10.4 | 0.00 | 0.00 | 0.00 | 35 | 1003.8 |
| 20260504182238 | 82 | 252 | 2.6 | 8.7 | 0.00 | 0.00 | 0.00 | 35 | 1003.8 |
| 20260504181735 | 82 | 279 | 2.6 | 8.7 | 0.00 | 0.00 | 0.00 | 36 | 1003.8 |
| 20260504181234 | 82 | 148 | 2.6 | 8.7 | 0.00 | 0.00 | 0.00 | 35 | 1003.7 |
| 20260504180733 | 81 | 50 | 2.6 | 7.8 | 0.00 | 0.00 | 0.00 | 35 | 1003.7 |
| 20260504180232 | 81 | 267 | 2.6 | 8.7 | 0.00 | 0.00 | 0.00 | 37 | 1003.7 |
| 20260504175953 | 81 | 147 | 2.6 | 8.7 | 0.00 | 0.00 | 0.00 | 34 | 1003.7 |
| 20260504175504 | 81 | 259 | 2.6 | 8.7 | 0.00 | 0.00 | 0.00 | 37 | 1003.7 |
| 20260504174731 | 81 | 211 | 2.6 | 8.7 | 0.00 | 0.00 | 0.00 | 37 | 1003.8 |
| 20260504174230 | 81 | 333 | 2.6 | 7.8 | 0.00 | 0.00 | 0.00 | 35 | 1003.9 |
| 20260504173730 | 81 | 265 | 2.6 | 6.1 | 0.00 | 0.00 | 0.00 | 36 | 1003.8 |
| 20260504173459 | 81 | 296 | 1.7 | 7.8 | 0.00 | 0.00 | 0.00 | 39 | 1004.0 |
| 20260504172729 | 80 | 265 | 1.7 | 7.8 | 0.00 | 0.00 | 0.00 | 37 | 1003.9 |
| 20260504172227 | 80 | 131 | 1.7 | 8.7 | 0.00 | 0.00 | 0.00 | 40 | 1004.0 |
| 20260504171727 | 80 | 235 | 2.6 | 8.7 | 0.00 | 0.00 | 0.00 | 38 | 1004.0 |
| 20260504171444 | 80 | 160 | 2.6 | 10.4 | 0.00 | 0.00 | 0.00 | 38 | 1004.0 |
| 20260504170728 | 79 | 284 | 2.6 | 10.4 | 0.00 | 0.00 | 0.00 | 38 | 1004.1 |
| 20260504170224 | 79 | 324 | 2.6 | 10.4 | 0.00 | 0.00 | 0.00 | 38 | 1004.1 |
| 20260504160208 | 75 | 239 | 3.5 | 10.4 | 0.00 | 0.00 | 0.00 | 47 | 1004.2 |
| 20260504151145 | 69 | 228 | 2.6 | 7.0 | 0.00 | 0.00 | 0.00 | 53 | 1004.1 |
| 20260504150637 | 69 | 239 | 1.7 | 7.0 | 0.00 | 0.00 | 0.00 | 52 | 1004.1 |
| 20260504150132 | 68 | 232 | 1.7 | 7.0 | 0.00 | 0.00 | 0.00 | 51 | 1004.1 |
| 20260504141032 | 65 | 67 | 0.9 | 3.5 | 0.00 | 0.00 | 0.00 | 55 | 1004.5 |
| 20260504140527 | 65 | 202 | 0.9 | 3.5 | 0.00 | 0.00 | 0.00 | 55 | 1004.5 |
| 20260504130414 | 58 | 314 | 0.0 | 4.3 | 0.00 | 0.00 | 0.00 | 69 | 1004.7 |
| 20260504110656 | 47 | 246 | 0.0 | 0.0 | 0.00 | 0.00 | 0.00 | 81 | 1004.5 |
| 20260504110149 | 47 | 246 | 0.0 | 0.0 | 0.00 | 0.00 | 0.00 | 81 | 1004.6 |
| 20260504100342 | 50 | 245 | 0.0 | 0.0 | 0.00 | 0.00 | 0.00 | 74 | 1004.7 |
| 20260504090108 | 52 | 244 | 0.0 | 0.0 | 0.00 | 0.00 | 0.00 | 70 | 1004.9 |
| 20260504081057 | 53 | 244 | 0.0 | 0.0 | 0.00 | 0.00 | 0.00 | 70 | 1005.7 |
| 20260504080827 | 53 | 244 | 0.0 | 0.0 | 0.00 | 0.00 | 0.00 | 70 | 1005.8 |
| 20260504050540 | 55 | 241 | 0.0 | 0.0 | 0.00 | 0.00 | 0.00 | 66 | 1008.4 |
| 20260504050304 | 56 | 241 | 0.0 | 0.0 | 0.00 | 0.00 | 0.00 | 65 | 1008.5 |
| 20260504045537 | 56 | 241 | 0.0 | 0.0 | 0.00 | 0.00 | 0.00 | 64 | 1008.6 |
| 20260504045037 | 56 | 241 | 0.0 | 0.0 | 0.00 | 0.00 | 0.00 | 63 | 1008.6 |
| 20260504044532 | 57 | 241 | 0.0 | 0.0 | 0.00 | 0.00 | 0.00 | 62 | 1008.6 |
| 20260504044033 | 57 | 241 | 0.0 | 0.0 | 0.00 | 0.00 | 0.00 | 61 | 1008.6 |
| 20260504043749 | 58 | 241 | 0.0 | 0.0 | 0.00 | 0.00 | 0.00 | 61 | 1008.6 |
| 20260504043032 | 58 | 241 | 0.0 | 0.0 | 0.00 | 0.00 | 0.00 | 60 | 1008.9 |
| 20260504042534 | 58 | 241 | 0.0 | 0.0 | 0.00 | 0.00 | 0.00 | 60 | 1008.8 |
| 20260504042030 | 58 | 241 | 0.0 | 0.0 | 0.00 | 0.00 | 0.00 | 60 | 1008.8 |
| 20260504041532 | 58 | 241 | 0.0 | 0.0 | 0.00 | 0.00 | 0.00 | 59 | 1008.9 |
| 20260504041303 | 59 | 241 | 0.0 | 0.0 | 0.00 | 0.00 | 0.00 | 59 | 1008.9 |
| 20260504040534 | 59 | 241 | 0.0 | 0.0 | 0.00 | 0.00 | 0.00 | 58 | 1009.0 |
| 20260504040026 | 60 | 241 | 0.0 | 0.0 | 0.00 | 0.00 | 0.00 | 57 | 1009.1 |
| 20260504035527 | 60 | 241 | 0.0 | 0.0 | 0.00 | 0.00 | 0.00 | 57 | 1009.1 |
| 20260504035028 | 61 | 241 | 0.0 | 0.0 | 0.00 | 0.00 | 0.00 | 55 | 1009.1 |
| 20260504034529 | 61 | 241 | 0.0 | 0.0 | 0.00 | 0.00 | 0.00 | 54 | 1009.2 |
| 20260504034028 | 61 | 241 | 0.0 | 0.0 | 0.00 | 0.00 | 0.00 | 53 | 1009.3 |
| 20260504033527 | 61 | 240 | 0.0 | 0.0 | 0.00 | 0.00 | 0.00 | 53 | 1009.3 |
| 20260504033027 | 62 | 240 | 0.0 | 0.0 | 0.00 | 0.00 | 0.00 | 52 | 1009.4 |
| 20260504032526 | 62 | 240 | 0.0 | 0.0 | 0.00 | 0.00 | 0.00 | 52 | 1009.3 |
| 20260504032030 | 62 | 240 | 0.0 | 0.0 | 0.00 | 0.00 | 0.00 | 51 | 1009.4 |
| 20260504031526 | 63 | 240 | 0.0 | 0.0 | 0.00 | 0.00 | 0.00 | 51 | 1009.3 |
| 20260504031254 | 63 | 240 | 0.0 | 0.0 | 0.00 | 0.00 | 0.00 | 50 | 1010.1 |
| 20260504030751 | 63 | 239 | 0.0 | 0.0 | 0.00 | 0.00 | 0.00 | 51 | 1009.7 |
| 20260504030026 | 63 | 239 | 0.0 | 0.0 | 0.00 | 0.00 | 0.00 | 50 | 1009.6 |
| 20260504025522 | 63 | 239 | 0.0 | 0.0 | 0.00 | 0.00 | 0.00 | 50 | 1009.7 |
| 20260504025021 | 63 | 239 | 0.0 | 0.0 | 0.00 | 0.00 | 0.00 | 50 | 1009.6 |
| 20260504024745 | 63 | 239 | 0.0 | 0.0 | 0.00 | 0.00 | 0.00 | 50 | 1009.6 |
| 20260504024018 | 64 | 239 | 0.0 | 0.0 | 0.00 | 0.00 | 0.00 | 50 | 1009.6 |
| 20260504023518 | 64 | 239 | 0.0 | 0.0 | 0.00 | 0.00 | 0.00 | 49 | 1009.4 |
| 20260504023019 | 64 | 239 | 0.0 | 0.0 | 0.00 | 0.00 | 0.00 | 49 | 1009.6 |
| 20260504022517 | 64 | 239 | 0.0 | 0.0 | 0.00 | 0.00 | 0.00 | 49 | 1009.4 |
| 20260504022016 | 64 | 239 | 0.0 | 0.9 | 0.00 | 0.00 | 0.00 | 49 | 1009.6 |
| 20260504021514 | 64 | 239 | 0.0 | 0.9 | 0.00 | 0.00 | 0.00 | 48 | 1009.4 |
| 20260504021009 | 64 | 239 | 0.0 | 0.9 | 0.00 | 0.00 | 0.00 | 48 | 1009.6 |
| 20260504020735 | 65 | 239 | 0.0 | 0.9 | 0.00 | 0.00 | 0.00 | 48 | 1009.7 |
| 20260504020234 | 65 | 239 | 0.0 | 0.9 | 0.00 | 0.00 | 0.00 | 47 | 1009.8 |
| 20260504015457 | 65 | 239 | 0.0 | 0.0 | 0.00 | 0.00 | 0.00 | 46 | 1009.8 |
| 20260504015447 | 66 | 239 | 0.0 | 0.0 | 0.00 | 0.00 | 0.00 | 45 | 1009.8 |
| 20260504014444 | 67 | 239 | 0.0 | 0.0 | 0.00 | 0.00 | 0.00 | 44 | 1009.8 |
| 20260504013938 | 67 | 239 | 0.0 | 0.9 | 0.00 | 0.00 | 0.00 | 43 | 1009.8 |
| 20260504013433 | 68 | 239 | 0.0 | 0.9 | 0.00 | 0.00 | 0.00 | 43 | 1009.8 |
| 20260504012928 | 69 | 239 | 0.0 | 0.9 | 0.00 | 0.00 | 0.00 | 42 | 1009.7 |
| 20260504012420 | 69 | 239 | 0.0 | 1.7 | 0.00 | 0.00 | 0.00 | 40 | 1009.7 |
| 20260504011914 | 69 | 239 | 0.0 | 1.7 | 0.00 | 0.00 | 0.00 | 40 | 1009.8 |